Lexington Weather

Lexington, Massachusetts, USA

68°F
9/23/2021 5:15am 
  • Lexington Conditions: Mostly cloudy
  • Temperature: 67.6°F / 19.8°CWarmer 0.9°F than last hour.
  • Dew Point: 66.4°FIncreased 0.9°Fsince last hour.
  • Relative Humidity: 96
  • Wind: Wind from SSE SSE 1 mph, 10-min avg: Calm, gust: 3 mph
  • Barometer: 30.03 in Steady
  • Visibility: 10 miles
  • Rain Today: 0.00 in
  •   

Regional Weather Roundup
for Boston / Norton, MA

        
000
ASUS41 KBOX 222004
RWRBOX

REGIONAL WEATHER ROUNDUP
NATIONAL WEATHER SERVICE BOSTON/NORTON MA
400 PM EDT WED SEP 22 2021

NOTE:  "FAIR" INDICATES FEW OR NO CLOUDS BELOW 12,000 FEET WITH NO 
SIGNIFICANT WEATHER AND/OR OBSTRUCTIONS TO VISIBILITY.

MAZALL-222100-
EASTERN MASSACHUSETTS
  
CITY           SKY/WX    TMP DP  RH WIND       PRES   REMARKS
BOSTON         CLOUDY    77  69  76 S10       30.11F                  
BEVERLY        CLOUDY    74  68  81 SE13      30.11F                  
LAWRENCE       CLOUDY    73  69  87 VRB5      30.13F                  
BEDFORD        CLOUDY    73  69  87 SE9       30.10F                  
BLUE HILL      NOT AVBL                                               
NORWOOD        PTSUNNY   76  70  82 S7G17     30.10F                  
MARSHFIELD     PTSUNNY   79  66  65 S9        30.12F                  
PLYMOUTH       CLOUDY    77  67  71 S8        30.13F                  
TAUNTON        CLOUDY    75  67  76 SE8       30.12S                  
NEW BEDFORD    CLOUDY    76  68  76 S14       30.12F                  
$$

MAZALL-222100-
CAPE COD AND THE ISLANDS
  
CITY           SKY/WX    TMP DP  RH WIND       PRES   REMARKS
FALMOUTH       MOSUNNY   77  68  73 S18       30.14F                  
HYANNIS        SUNNY     75  68  78 SE10      30.13F                  
CHATHAM        SUNNY     73  66  78 S8        30.16F                  
PROVINCETOWN   SUNNY     77  68  73 S12       30.14F                  
NANTUCKET        N/A    N/A N/A N/A MISG      30.15F                  
MARTHAS VNYRD  PTSUNNY   74  68  81 SE17      30.13F                  
$$
 
MAZALL-222100-
CENTRAL AND WESTERN MASSACHUSETTS
  
CITY           SKY/WX    TMP DP  RH WIND       PRES   REMARKS
WORCESTER      CLOUDY    71  69  93 S10       30.12F                  
FITCHBURG      CLOUDY    72  69  90 S12       30.10F                  
ORANGE         CLOUDY    75  69  81 S8        30.08F                  
SPRINGFIELD    NOT AVBL                                               
WESTFIELD      PTSUNNY   77  70  79 S13G23    30.05F                  
NORTH ADAMS    NOT AVBL                                               
PITTSFIELD     MOSUNNY   74  65  73 SE15G21   30.05F                  
$$
 
RIZALL-222100-
RHODE ISLAND
  
CITY           SKY/WX    TMP DP  RH WIND       PRES   REMARKS
PROVIDENCE     CLOUDY    74  70  87 S9G18     30.12F                  
NEWPORT        CLOUDY    71  69  93 SE12      30.12F                  
BLOCK ISLAND   CLOUDY    73  69  87 S14       30.11F                  
SMITHFIELD     CLOUDY    71  69  93 VRB7      30.12F                  
WESTERLY       CLOUDY    71  70  96 SE10      30.10F                  
$$
 
CTZALL-222100-
CONNECTICUT
  
CITY           SKY/WX    TMP DP  RH WIND       PRES   REMARKS
BRADLEY INTL   PTSUNNY   76  69  79 S12       30.06F                  
HARTFORD       PTSUNNY   77  68  73 S10G21    30.06F                  
BRIDGEPORT     CLOUDY    78  70  76 S8        30.05F                  
DANBURY        PTSUNNY   80  66  62 S10       30.06F                  
GROTON         LGT RAIN  72  71  97 S9        30.09F FOG              
NEW HAVEN      CLOUDY    78  73  84 S12       30.06F                  
CHESTER        CLOUDY    73  72  94 NE10      30.09F                  
MERIDEN        CLOUDY    77  68  73 S7        30.06F                  
WILLIMANTIC    CLOUDY    72  70  93 S8        30.09F                  
OXFORD         PTSUNNY   76  69  79 S14G20    30.08F                  
$$

MEZ002-015-021-024-NHZ003-005-008-011-012-014-VTZ005-008-222100-
NORTHERN NEW ENGLAND
  
CITY           SKY/WX    TMP DP  RH WIND       PRES   REMARKS
PORTLAND ME    CLOUDY    69  64  84 S10       30.15F                  
BANGOR ME      PTSUNNY   73  59  61 S15       30.18S                  
CONCORD NH     LGT RAIN  71  68  90 SE8       30.10F FOG              
MANCHESTER NH  CLOUDY    74  66  76 SE12      30.08F                  
NASHUA NH      CLOUDY    73  72  96 SE7       30.10F                  
PORTSMOUTH NH  CLOUDY    73  65  74 SE17G23   30.13F                  
JAFFREY NH     RAIN      71  71 100 CALM      30.11F FOG              
KEENE NH       CLOUDY    76  68  76 S12       30.07F                  
BURLINGTON VT  PTSUNNY   79  64  60 S12G23    29.99F                  
MT. WASHINGTON SHOWER    54  54 100 S29G43      N/A  VSB 0            
$$

NYZ052-076-222100-
EASTERN NEW YORK
  
CITY           SKY/WX    TMP DP  RH WIND       PRES   REMARKS
ALBANY         PTSUNNY   79  65  62 S13G22    29.98F                  
NEW YORK CITY  PTSUNNY   80  67  64 SE16G25   30.01F                  
$$
 
ANZALL-222100-
MARINE OBSERVATIONS
  
STATION/POSITION TIME  TEMP    WIND        PRES    VSBY  WAVE
                       AIR SEA DIR/SP/G                  HT/PER
                 (UTC) (F)     (DEG/KT/KT) (MB)    (MI)  (FT/S)
BOSTON BUOY      1940      64  130/ 12/ 14 1020.3F
BUZZARDS BAY     1900          140/ 16/ 17 1021.2F
NANTUCKET SOUND  1940   74 72  160/ 14/ 17 1020.4F
MASS BAY-STELLWA 1904   68     150/ 14/ 16 1020.0F  1 7/8  3/ 5
ISLE OF SHOALS   1900   67     140/ 20/ 21 1019.8F
S OF BLOCK IS    1926      70                N/A           5/ 7
$$

......................KEY.........................
  SKY/WX - SKY CONDITION/PRESENT WEATHER
  TMP    - TEMPERATURE IN FAHRENHEIT
  DWPT   - DEWPOINT IN FAHRENHEIT
  RH     - RELATIVE HUMIDITY IN PERCENT
  WIND   - DIRECTION AND SPEED IN MPH
  PRES   - MEAN SEA LEVEL PRESSURE IN INCHES OF HG
  WCI    - WIND CHILL INDEX
  VSB    - VISIBILITY IN MILES
  HX     - HEAT INDEX
  TC     - TEMPERATURE IN CELSIUS
  VRB    - VARIABLE WIND DIRECTION
  N/A    - NOT AVAILABLE
  
      

Other recent Regional Weather Roundups

Thu Sep 23, 5:04am

Thu Sep 23, 4:04am

Thu Sep 23, 3:04am

Thu Sep 23, 2:04am

Thu Sep 23, 1:04am

Thu Sep 23, 12:04am

Wed Sep 22, 11:04pm

Wed Sep 22, 10:04pm

Wed Sep 22, 9:04pm

Wed Sep 22, 8:04pm

Wed Sep 22, 7:04pm

Wed Sep 22, 6:04pm

Wed Sep 22, 5:04pm

Wed Sep 22, 3:04pm

Wed Sep 22, 2:04pm

Wed Sep 22, 1:04pm

Wed Sep 22, 12:05pm

Wed Sep 22, 11:04am

Wed Sep 22, 10:04am

Wed Sep 22, 9:04am

Wed Sep 22, 8:04am

Wed Sep 22, 7:04am

Wed Sep 22, 6:04am

Wed Sep 22, 5:04am

Wed Sep 22, 4:04am

Wed Sep 22, 3:04am

Wed Sep 22, 2:04am

Wed Sep 22, 1:04am

Wed Sep 22, 12:04am

Tue Sep 21, 11:04pm

Tue Sep 21, 10:04pm

Tue Sep 21, 9:04pm

Tue Sep 21, 8:04pm

Tue Sep 21, 7:04pm

Tue Sep 21, 6:04pm

Tue Sep 21, 5:04pm

Tue Sep 21, 4:04pm

Tue Sep 21, 3:04pm

Tue Sep 21, 2:04pm

Tue Sep 21, 1:04pm

Tue Sep 21, 12:04pm

Tue Sep 21, 11:04am

Tue Sep 21, 10:04am

Tue Sep 21, 9:04am

Tue Sep 21, 8:04am

Tue Sep 21, 7:04am

Tue Sep 21, 6:04am

Tue Sep 21, 5:04am

Tue Sep 21, 4:04am

Tue Sep 21, 3:04am

Tue Sep 21, 2:04am

Tue Sep 21, 1:04am

Tue Sep 21, 12:04am

Mon Sep 20, 11:04pm

Mon Sep 20, 10:04pm

Mon Sep 20, 9:04pm

Mon Sep 20, 8:04pm

Mon Sep 20, 7:04pm

Mon Sep 20, 6:04pm

Mon Sep 20, 5:04pm

Mon Sep 20, 4:04pm

Mon Sep 20, 3:04pm

Mon Sep 20, 2:04pm

Mon Sep 20, 1:04pm

Mon Sep 20, 12:04pm

Mon Sep 20, 11:04am

Mon Sep 20, 10:04am

Mon Sep 20, 9:04am

Mon Sep 20, 7:04am

Mon Sep 20, 6:04am

Mon Sep 20, 5:04am

Mon Sep 20, 4:04am

Mon Sep 20, 3:04am

Mon Sep 20, 2:04am

Mon Sep 20, 1:04am

Mon Sep 20, 12:04am

Sun Sep 19, 11:04pm

Sun Sep 19, 10:04pm

Sun Sep 19, 9:04pm

Sun Sep 19, 8:04pm

Sun Sep 19, 7:04pm

Sun Sep 19, 6:04pm

Sun Sep 19, 5:04pm

Sun Sep 19, 4:04pm

Sun Sep 19, 3:04pm

Sun Sep 19, 2:05pm

Sun Sep 19, 1:04pm

Sun Sep 19, 12:04pm

Sun Sep 19, 11:04am

Sun Sep 19, 10:05am

Sun Sep 19, 9:04am

Sun Sep 19, 8:04am

Sun Sep 19, 7:04am

Sun Sep 19, 6:04am

Sun Sep 19, 5:04am

Sun Sep 19, 4:04am

Sun Sep 19, 3:04am

Sun Sep 19, 2:04am

Sun Sep 19, 1:04am

Sun Sep 19, 12:04am

Sat Sep 18, 11:05pm

Sat Sep 18, 10:04pm

Sat Sep 18, 9:04pm

Sat Sep 18, 8:04pm

Sat Sep 18, 7:04pm

Sat Sep 18, 6:04pm

Sat Sep 18, 5:04pm

Sat Sep 18, 4:04pm

Sat Sep 18, 3:04pm

Sat Sep 18, 2:04pm

Sat Sep 18, 1:04pm

Sat Sep 18, 12:04pm

Sat Sep 18, 11:04am

Sat Sep 18, 10:04am

Sat Sep 18, 9:04am

Sat Sep 18, 8:04am

Sat Sep 18, 7:04am

Sat Sep 18, 6:04am

Sat Sep 18, 5:04am

Sat Sep 18, 4:04am

Sat Sep 18, 3:04am

Sat Sep 18, 2:04am

Sat Sep 18, 1:04am

Sat Sep 18, 12:04am

Fri Sep 17, 11:04pm

Fri Sep 17, 10:04pm

Fri Sep 17, 9:04pm

Fri Sep 17, 8:04pm

Fri Sep 17, 7:04pm

Fri Sep 17, 6:04pm

Fri Sep 17, 5:04pm

Fri Sep 17, 4:04pm

Fri Sep 17, 3:04pm

Fri Sep 17, 2:04pm

Fri Sep 17, 1:04pm

Fri Sep 17, 12:05pm

Fri Sep 17, 11:04am

Fri Sep 17, 10:04am

Fri Sep 17, 9:04am

Fri Sep 17, 8:04am

Fri Sep 17, 7:04am

Fri Sep 17, 6:04am

Fri Sep 17, 5:04am

Fri Sep 17, 4:04am

Fri Sep 17, 3:04am

Fri Sep 17, 2:04am

Fri Sep 17, 1:04am

Fri Sep 17, 12:04am

Thu Sep 16, 11:04pm

Thu Sep 16, 10:04pm

Thu Sep 16, 9:04pm

Thu Sep 16, 8:04pm

Thu Sep 16, 7:04pm

Thu Sep 16, 6:04pm

Thu Sep 16, 5:04pm

Thu Sep 16, 4:04pm

Thu Sep 16, 3:04pm

Thu Sep 16, 2:04pm

Thu Sep 16, 1:05pm

Thu Sep 16, 12:04pm

Thu Sep 16, 11:05am

Thu Sep 16, 10:05am

Thu Sep 16, 9:04am

Thu Sep 16, 8:04am

Thu Sep 16, 7:04am

Thu Sep 16, 6:04am

Meta data:

ID: b85fda09-f9ce-4e2a-a4c2-07d2bde1d3a8
Link: https://api.weather.gov/products/b85fda09-f9ce-4e2a-a4c2-07d2bde1d3a8